Time,TemperatureF,DewpointF,PressureIn,WindDirection,WindDirectionDegrees,WindSpeedMPH,WindSpeedGustMPH,Humidity,HourlyPrecipIn,Conditions,Clouds,dailyrainin,SoftwareType,DateUTC
2013-06-09 00:02:00,64.0,56.0,29.98,SE,137,0.0,2.0,74,0.00,,,0.00,,2013-06-09 05:02:00,
2013-06-09 00:12:00,64.0,56.0,29.98,SE,137,0.0,2.0,74,0.00,,,0.00,,2013-06-09 05:12:00,
2013-06-09 00:22:00,63.0,55.0,29.98,SE,142,1.0,5.0,75,0.00,,,0.00,,2013-06-09 05:22:00,
2013-06-09 00:32:00,63.0,55.0,29.98,SE,139,1.0,5.0,74,0.00,,,0.00,,2013-06-09 05:32:00,
2013-06-09 00:42:00,63.0,55.0,29.98,SE,139,1.0,5.0,74,0.00,,,0.00,,2013-06-09 05:42:00,
2013-06-09 00:52:00,63.0,55.0,29.98,SE,130,1.0,5.0,74,0.00,,,0.00,,2013-06-09 05:52:00,
2013-06-09 01:02:00,63.0,55.0,29.98,SE,130,0.0,2.0,74,0.00,,,0.00,,2013-06-09 06:02:00,
2013-06-09 01:12:00,63.0,55.0,29.98,SE,130,0.0,2.0,74,0.00,,,0.00,,2013-06-09 06:12:00,
2013-06-09 01:22:00,63.0,55.0,29.97,SE,130,0.0,1.0,76,0.00,,,0.00,,2013-06-09 06:22:00,
2013-06-09 01:32:00,63.0,55.0,29.96,SE,135,1.0,3.0,76,0.00,,,0.00,,2013-06-09 06:32:00,
2013-06-09 01:42:00,63.0,55.0,29.96,SE,135,1.0,3.0,76,0.00,,,0.00,,2013-06-09 06:42:00,
2013-06-09 01:52:00,63.0,55.0,29.96,SE,144,0.0,1.0,76,0.00,,,0.00,,2013-06-09 06:52:00,
2013-06-09 02:02:00,63.0,55.0,29.96,SE,141,0.0,3.0,76,0.00,,,0.00,,2013-06-09 07:02:00,
2013-06-09 02:12:00,63.0,55.0,29.96,SE,141,0.0,3.0,76,0.00,,,0.00,,2013-06-09 07:12:00,
2013-06-09 02:22:00,63.0,56.0,29.96,SE,141,0.0,2.0,77,0.00,,,0.00,,2013-06-09 07:22:00,
2013-06-09 02:32:00,63.0,56.0,29.96,SE,141,0.0,3.0,78,0.00,,,0.00,,2013-06-09 07:32:00,
2013-06-09 02:42:00,63.0,56.0,29.96,SE,141,0.0,3.0,78,0.00,,,0.00,,2013-06-09 07:42:00,
2013-06-09 02:52:00,63.0,56.0,29.95,SE,139,0.0,2.0,78,0.00,,,0.00,,2013-06-09 07:52:00,
2013-06-09 03:02:00,63.0,56.0,29.95,SE,142,0.0,2.0,79,0.00,,,0.00,,2013-06-09 08:02:00,
2013-06-09 03:12:00,63.0,56.0,29.95,SE,142,0.0,2.0,79,0.00,,,0.00,,2013-06-09 08:12:00,
2013-06-09 03:22:00,62.0,56.0,29.96,SE,142,0.0,1.0,80,0.00,,,0.00,,2013-06-09 08:22:00,
2013-06-09 03:32:00,62.0,56.0,29.95,SE,142,0.0,0.0,82,0.00,,,0.00,,2013-06-09 08:32:00,
2013-06-09 03:42:00,62.0,56.0,29.95,SE,142,0.0,0.0,82,0.00,,,0.00,,2013-06-09 08:42:00,
2013-06-09 03:53:00,62.0,56.0,29.95,SE,142,0.0,1.0,82,0.00,,,0.00,,2013-06-09 08:53:00,
2013-06-09 04:02:00,63.0,57.0,29.96,SE,142,0.0,2.0,81,0.00,,,0.00,,2013-06-09 09:02:00,
2013-06-09 04:12:00,63.0,57.0,29.96,SE,142,0.0,2.0,81,0.00,,,0.00,,2013-06-09 09:12:00,
2013-06-09 04:22:00,63.0,57.0,29.96,SE,142,0.0,1.0,81,0.00,,,0.00,,2013-06-09 09:22:00,
2013-06-09 04:33:00,63.0,57.0,29.96,SE,142,0.0,1.0,81,0.00,,,0.00,,2013-06-09 09:33:00,
2013-06-09 04:43:00,63.0,57.0,29.96,SE,142,0.0,1.0,81,0.00,,,0.00,,2013-06-09 09:43:00,
2013-06-09 04:52:00,63.0,57.0,29.95,SE,142,0.0,1.0,80,0.00,,,0.00,,2013-06-09 09:52:00,
2013-06-09 05:03:00,63.0,56.0,29.96,SE,142,0.0,1.0,79,0.00,,,0.00,,2013-06-09 10:03:00,
2013-06-09 05:12:00,63.0,56.0,29.96,SE,142,0.0,1.0,79,0.00,,,0.00,,2013-06-09 10:12:00,
2013-06-09 05:23:00,63.0,57.0,29.96,SE,142,0.0,1.0,80,0.00,,,0.00,,2013-06-09 10:23:00,
2013-06-09 05:32:00,63.0,57.0,29.96,SE,142,0.0,1.0,82,0.00,,,0.00,,2013-06-09 10:32:00,
2013-06-09 05:43:00,63.0,57.0,29.96,SE,142,0.0,1.0,82,0.00,,,0.00,,2013-06-09 10:43:00,
2013-06-09 05:52:00,62.0,57.0,29.96,SE,142,0.0,1.0,83,0.00,,,0.00,,2013-06-09 10:52:00,
2013-06-09 06:02:00,62.0,57.0,29.96,SE,142,0.0,1.0,85,0.00,,,0.00,,2013-06-09 11:02:00,
2013-06-09 06:12:00,62.0,57.0,29.96,SE,142,0.0,1.0,85,0.00,,,0.00,,2013-06-09 11:12:00,
2013-06-09 06:22:00,63.0,59.0,29.96,SE,142,0.0,2.0,86,0.00,,,0.00,,2013-06-09 11:22:00,
2013-06-09 06:32:00,63.0,59.0,29.96,SSE,147,0.0,3.0,86,0.00,,,0.00,,2013-06-09 11:32:00,
2013-06-09 06:42:00,63.0,59.0,29.96,SSE,147,0.0,3.0,86,0.00,,,0.00,,2013-06-09 11:42:00,
2013-06-09 06:53:00,64.0,60.0,29.96,SSE,150,0.0,2.0,86,0.00,,,0.00,,2013-06-09 11:53:00,
2013-06-09 07:02:00,64.0,60.0,29.96,SSE,157,1.0,4.0,86,0.00,,,0.00,,2013-06-09 12:02:00,
2013-06-09 07:12:00,64.0,60.0,29.96,SSE,157,1.0,4.0,86,0.00,,,0.00,,2013-06-09 12:12:00,
2013-06-09 07:22:00,65.0,60.0,29.96,SSE,157,0.0,3.0,85,0.00,,,0.00,,2013-06-09 12:22:00,
2013-06-09 07:32:00,67.0,61.0,29.96,SSE,153,0.0,3.0,82,0.00,,,0.00,,2013-06-09 12:32:00,
2013-06-09 07:42:00,67.0,61.0,29.96,SSE,153,0.0,3.0,82,0.00,,,0.00,,2013-06-09 12:42:00,
2013-06-09 07:52:00,68.0,62.0,29.96,SSE,150,0.0,4.0,81,0.00,,,0.00,,2013-06-09 12:52:00,
2013-06-09 08:02:00,70.0,62.0,29.96,South,177,2.0,5.0,76,0.00,,,0.00,,2013-06-09 13:02:00,
2013-06-09 08:12:00,70.0,62.0,29.96,South,177,2.0,5.0,76,0.00,,,0.00,,2013-06-09 13:12:00,
2013-06-09 08:22:00,71.0,63.0,29.96,South,169,2.0,5.0,75,0.00,,,0.00,,2013-06-09 13:22:00,
2013-06-09 08:32:00,72.0,63.0,29.96,SSW,203,3.0,6.0,73,0.00,,,0.00,,2013-06-09 13:32:00,
2013-06-09 08:42:00,72.0,63.0,29.96,SSW,203,3.0,6.0,73,0.00,,,0.00,,2013-06-09 13:42:00,
2013-06-09 08:52:00,73.0,63.0,29.96,ESE,121,2.0,7.0,70,0.00,,,0.00,,2013-06-09 13:52:00,
2013-06-09 09:02:00,74.0,62.0,29.96,SW,221,3.0,8.0,67,0.00,,,0.00,,2013-06-09 14:02:00,
2013-06-09 09:12:00,74.0,62.0,29.96,SW,221,3.0,8.0,67,0.00,,,0.00,,2013-06-09 14:12:00,
2013-06-09 09:22:00,74.0,61.0,29.96,SW,215,3.0,6.0,63,0.00,,,0.00,,2013-06-09 14:22:00,
2013-06-09 09:32:00,73.0,60.0,29.95,South,183,2.0,4.0,63,0.00,,,0.00,,2013-06-09 14:32:00,
2013-06-09 09:42:00,73.0,60.0,29.95,South,183,2.0,4.0,63,0.00,,,0.00,,2013-06-09 14:42:00,
2013-06-09 09:52:00,73.0,61.0,29.95,SSE,163,2.0,4.0,66,0.00,,,0.00,,2013-06-09 14:52:00,
2013-06-09 10:02:00,73.0,61.0,29.94,South,174,2.0,6.0,65,0.00,,,0.00,,2013-06-09 15:02:00,
2013-06-09 10:12:00,73.0,61.0,29.94,South,174,2.0,6.0,65,0.00,,,0.00,,2013-06-09 15:12:00,
2013-06-09 10:22:00,73.0,61.0,29.94,SSE,150,2.0,6.0,65,0.00,,,0.00,,2013-06-09 15:22:00,
2013-06-09 10:33:00,74.0,60.0,29.94,SSE,163,3.0,8.0,62,0.00,,,0.00,,2013-06-09 15:33:00,
2013-06-09 10:43:00,74.0,60.0,29.94,SSE,163,3.0,8.0,62,0.00,,,0.00,,2013-06-09 15:43:00,
2013-06-09 10:53:00,75.0,60.0,29.94,South,184,4.0,9.0,60,0.00,,,0.00,,2013-06-09 15:53:00,
2013-06-09 11:03:00,77.0,60.0,29.93,SSE,167,4.0,9.0,56,0.00,,,0.00,,2013-06-09 16:03:00,
2013-06-09 11:13:00,77.0,60.0,29.93,SSE,167,4.0,9.0,56,0.00,,,0.00,,2013-06-09 16:13:00,
2013-06-09 11:23:00,77.0,60.0,29.93,South,184,5.0,9.0,55,0.00,,,0.00,,2013-06-09 16:23:00,
2013-06-09 11:33:00,78.0,60.0,29.93,SSE,167,4.0,12.0,54,0.00,,,0.00,,2013-06-09 16:33:00,
2013-06-09 11:42:00,78.0,60.0,29.93,SSE,167,4.0,12.0,54,0.00,,,0.00,,2013-06-09 16:42:00,
2013-06-09 11:53:00,78.0,61.0,29.92,South,169,3.0,12.0,56,0.00,,,0.00,,2013-06-09 16:53:00,
2013-06-09 12:02:00,78.0,59.0,29.91,SW,225,3.0,11.0,53,0.00,,,0.00,,2013-06-09 17:02:00,
2013-06-09 12:12:00,78.0,59.0,29.91,SW,225,3.0,11.0,53,0.00,,,0.00,,2013-06-09 17:12:00,
2013-06-09 12:22:00,78.0,60.0,29.91,SSW,209,3.0,13.0,54,0.00,,,0.00,,2013-06-09 17:22:00,
2013-06-09 12:32:00,78.0,59.0,29.91,SSE,161,5.0,10.0,53,0.00,,,0.00,,2013-06-09 17:32:00,
2013-06-09 12:42:00,78.0,59.0,29.91,SSE,161,5.0,10.0,53,0.00,,,0.00,,2013-06-09 17:42:00,
2013-06-09 12:52:00,78.0,58.0,29.90,SSE,156,3.0,11.0,51,0.00,,,0.00,,2013-06-09 17:52:00,
2013-06-09 13:02:00,79.0,60.0,29.89,South,191,3.0,7.0,53,0.00,,,0.00,,2013-06-09 18:02:00,
2013-06-09 13:12:00,79.0,60.0,29.89,South,191,3.0,7.0,53,0.00,,,0.00,,2013-06-09 18:12:00,
2013-06-09 13:22:00,78.0,60.0,29.89,SSW,213,4.0,11.0,54,0.00,,,0.00,,2013-06-09 18:22:00,
2013-06-09 13:32:00,80.0,62.0,29.88,SSE,151,4.0,11.0,54,0.00,,,0.00,,2013-06-09 18:32:00,
2013-06-09 13:42:00,80.0,62.0,29.88,SSE,151,4.0,11.0,54,0.00,,,0.00,,2013-06-09 18:42:00,
2013-06-09 13:52:00,81.0,60.0,29.88,South,176,4.0,12.0,49,0.00,,,0.00,,2013-06-09 18:52:00,
2013-06-09 14:02:00,81.0,60.0,29.87,SSW,211,3.0,11.0,49,0.00,,,0.00,,2013-06-09 19:02:00,
2013-06-09 14:12:00,81.0,60.0,29.87,SSW,211,3.0,11.0,49,0.00,,,0.00,,2013-06-09 19:12:00,
2013-06-09 14:22:00,81.0,58.0,29.86,ESE,118,5.0,13.0,46,0.00,,,0.00,,2013-06-09 19:22:00,
2013-06-09 14:32:00,81.0,58.0,29.86,SSE,158,6.0,10.0,45,0.00,,,0.00,,2013-06-09 19:32:00,
2013-06-09 14:42:00,81.0,58.0,29.86,SSE,158,6.0,10.0,45,0.00,,,0.00,,2013-06-09 19:42:00,
2013-06-09 14:52:00,80.0,57.0,29.85,SSE,166,6.0,12.0,46,0.00,,,0.00,,2013-06-09 19:52:00,
2013-06-09 15:02:00,80.0,57.0,29.84,SSE,160,4.0,15.0,45,0.00,,,0.00,,2013-06-09 20:02:00,
2013-06-09 15:12:00,80.0,57.0,29.84,SSE,160,4.0,15.0,45,0.00,,,0.00,,2013-06-09 20:12:00,
2013-06-09 15:22:00,80.0,57.0,29.85,SE,138,5.0,11.0,46,0.00,,,0.00,,2013-06-09 20:22:00,
2013-06-09 15:32:00,80.0,58.0,29.84,SE,128,4.0,11.0,47,0.00,,,0.00,,2013-06-09 20:32:00,
2013-06-09 15:42:00,80.0,58.0,29.84,SE,128,4.0,11.0,47,0.00,,,0.00,,2013-06-09 20:42:00,
2013-06-09 15:52:00,81.0,56.0,29.83,SSW,205,5.0,12.0,42,0.00,,,0.00,,2013-06-09 20:52:00,
2013-06-09 16:02:00,80.0,57.0,29.83,SSE,155,4.0,11.0,46,0.00,,,0.00,,2013-06-09 21:02:00,
2013-06-09 16:12:00,80.0,57.0,29.83,SSE,155,4.0,11.0,46,0.00,,,0.00,,2013-06-09 21:12:00,
2013-06-09 16:22:00,80.0,54.0,29.83,SSE,167,6.0,11.0,41,0.00,,,0.00,,2013-06-09 21:22:00,
2013-06-09 16:33:00,80.0,54.0,29.83,SE,144,5.0,11.0,41,0.00,,,0.00,,2013-06-09 21:33:00,
2013-06-09 16:43:00,80.0,54.0,29.83,SE,144,5.0,11.0,41,0.00,,,0.00,,2013-06-09 21:43:00,
2013-06-09 16:53:00,79.0,56.0,29.83,South,186,5.0,9.0,45,0.00,,,0.00,,2013-06-09 21:53:00,
2013-06-09 17:02:00,79.0,56.0,29.82,SE,136,4.0,8.0,45,0.00,,,0.00,,2013-06-09 22:02:00,
2013-06-09 17:13:00,79.0,56.0,29.82,SE,136,4.0,8.0,45,0.00,,,0.00,,2013-06-09 22:13:00,
2013-06-09 17:23:00,79.0,56.0,29.82,South,176,5.0,9.0,45,0.00,,,0.00,,2013-06-09 22:23:00,
2013-06-09 17:33:00,79.0,57.0,29.81,SE,135,3.0,7.0,47,0.00,,,0.00,,2013-06-09 22:33:00,
2013-06-09 17:42:00,79.0,57.0,29.81,SE,135,3.0,7.0,47,0.00,,,0.00,,2013-06-09 22:42:00,
2013-06-09 17:52:00,79.0,57.0,29.81,SSE,153,4.0,8.0,47,0.00,,,0.00,,2013-06-09 22:52:00,
2013-06-09 18:02:00,78.0,56.0,29.80,SE,146,3.0,8.0,47,0.00,,,0.00,,2013-06-09 23:02:00,
2013-06-09 18:12:00,78.0,56.0,29.80,SE,146,3.0,8.0,47,0.00,,,0.00,,2013-06-09 23:12:00,
2013-06-09 18:22:00,78.0,57.0,29.80,East,90,3.0,9.0,48,0.00,,,0.00,,2013-06-09 23:22:00,
2013-06-09 18:32:00,78.0,58.0,29.80,SSE,157,3.0,8.0,50,0.00,,,0.00,,2013-06-09 23:32:00,
2013-06-09 18:42:00,78.0,58.0,29.80,SSE,157,3.0,8.0,50,0.00,,,0.00,,2013-06-09 23:42:00,
2013-06-09 18:52:00,77.0,58.0,29.80,SSE,166,2.0,9.0,52,0.00,,,0.00,,2013-06-09 23:52:00,
2013-06-09 19:02:00,78.0,59.0,29.80,SSE,150,3.0,8.0,52,0.00,,,0.00,,2013-06-10 00:02:00,
2013-06-09 19:13:00,78.0,59.0,29.80,SSE,150,3.0,8.0,52,0.00,,,0.00,,2013-06-10 00:13:00,
2013-06-09 19:22:00,77.0,58.0,29.80,SSE,151,3.0,8.0,52,0.00,,,0.00,,2013-06-10 00:22:00,
2013-06-09 19:32:00,77.0,59.0,29.80,SSE,148,3.0,8.0,54,0.00,,,0.00,,2013-06-10 00:32:00,
2013-06-09 19:42:00,77.0,59.0,29.80,SSE,148,3.0,8.0,54,0.00,,,0.00,,2013-06-10 00:42:00,
2013-06-09 19:52:00,76.0,59.0,29.80,SSE,161,5.0,8.0,55,0.00,,,0.00,,2013-06-10 00:52:00,
2013-06-09 20:02:00,76.0,60.0,29.79,SSE,155,3.0,6.0,57,0.00,,,0.00,,2013-06-10 01:02:00,
2013-06-09 20:12:00,76.0,60.0,29.79,SSE,155,3.0,6.0,57,0.00,,,0.00,,2013-06-10 01:12:00,
2013-06-09 20:22:00,75.0,60.0,29.78,East,93,4.0,8.0,59,0.00,,,0.00,,2013-06-10 01:22:00,
2013-06-09 20:32:00,75.0,61.0,29.78,SSE,163,4.0,8.0,61,0.00,,,0.00,,2013-06-10 01:32:00,
2013-06-09 20:42:00,75.0,61.0,29.78,SSE,163,4.0,8.0,61,0.00,,,0.00,,2013-06-10 01:42:00,
2013-06-09 20:52:00,74.0,61.0,29.78,SSE,155,3.0,9.0,63,0.00,,,0.00,,2013-06-10 01:52:00,
2013-06-09 21:02:00,74.0,61.0,29.79,SSE,147,5.0,11.0,64,0.00,,,0.00,,2013-06-10 02:02:00,
2013-06-09 21:12:00,74.0,61.0,29.79,SSE,147,5.0,11.0,64,0.00,,,0.00,,2013-06-10 02:12:00,
2013-06-09 21:22:00,74.0,61.0,29.79,SSE,147,5.0,11.0,64,0.00,,,0.00,,2013-06-10 02:22:00,
2013-06-09 21:32:00,71.0,62.0,29.79,South,178,4.0,8.0,72,0.00,,,0.00,,2013-06-10 02:32:00,
2013-06-09 21:42:00,71.0,62.0,29.79,South,178,4.0,8.0,72,0.00,,,0.00,,2013-06-10 02:42:00,
2013-06-09 21:52:00,71.0,62.0,29.79,South,178,3.0,7.0,74,0.00,,,0.00,,2013-06-10 02:52:00,
2013-06-09 22:02:00,70.0,62.0,29.79,South,190,2.0,7.0,76,0.00,,,0.00,,2013-06-10 03:02:00,
2013-06-09 22:12:00,70.0,62.0,29.79,South,190,2.0,7.0,76,0.00,,,0.00,,2013-06-10 03:12:00,
2013-06-09 22:22:00,70.0,63.0,29.79,SSE,155,2.0,10.0,79,0.00,,,0.00,,2013-06-10 03:22:00,
2013-06-09 22:33:00,69.0,63.0,29.79,South,188,1.0,5.0,81,0.00,,,0.00,,2013-06-10 03:33:00,
2013-06-09 22:43:00,69.0,63.0,29.79,South,188,1.0,5.0,81,0.00,,,0.00,,2013-06-10 03:43:00,
2013-06-09 22:53:00,69.0,64.0,29.79,SSE,167,1.0,7.0,83,0.00,,,0.00,,2013-06-10 03:53:00,
2013-06-09 23:03:00,68.0,63.0,29.79,SSE,153,2.0,5.0,84,0.00,,,0.00,,2013-06-10 04:03:00,
2013-06-09 23:12:00,68.0,63.0,29.79,SSE,153,2.0,5.0,84,0.00,,,0.00,,2013-06-10 04:12:00,
2013-06-09 23:23:00,68.0,64.0,29.79,SSE,147,1.0,5.0,86,0.00,,,0.00,,2013-06-10 04:23:00,
2013-06-09 23:33:00,68.0,64.0,29.79,SSE,157,0.0,3.0,86,0.00,,,0.00,,2013-06-10 04:33:00,
2013-06-09 23:42:00,68.0,64.0,29.79,SSE,157,0.0,3.0,86,0.00,,,0.00,,2013-06-10 04:42:00,
2013-06-09 23:53:00,68.0,64.0,29.79,SSE,157,1.0,3.0,87,0.00,,,0.00,,2013-06-10 04:53:00,